CW5398 Weather Reports


Display with metric or nautical units.
time (UTC)temp
F
wind
direction
speed
MPH
gust
MPH
rain 1hr
in
rain 24hr
in
rain mn
in
humidity
%
barometer
mb
20260901041556 58 286 0.0 0.0 0.00 0.00 0.00 83 1008.5
20260901040536 59 286 0.0 0.0 0.00 0.00 0.00 82 1008.5
20260901035516 59 286 0.0 0.0 0.00 0.00 0.00 81 1008.5
20260901034516 60 286 0.0 0.0 0.00 0.00 0.00 80 1008.5
20260901033516 60 286 0.0 0.0 0.00 0.00 0.00 78 1008.4
20260901032516 61 286 0.0 0.0 0.00 0.00 0.00 77 1008.4
20260901031536 62 286 0.0 0.0 0.00 0.00 0.00 74 1008.5
20260901030516 63 286 0.0 0.0 0.00 0.00 0.00 73 1008.4
20260901025526 64 293 0.0 2.0 0.00 0.00 0.00 71 1008.5
20260901024536 65 286 0.0 0.0 0.00 0.00 0.00 70 1008.5
20260901023536 66 286 0.0 0.0 0.00 0.00 0.00 68 1008.5
20260901022516 66 286 0.0 0.0 0.00 0.00 0.00 65 1008.6
20260901021516 66 286 0.0 0.0 0.00 0.00 0.00 64 1008.6
20260901020516 67 293 0.0 1.0 0.00 0.00 0.00 62 1008.6
20260901015516 66 293 0.0 1.0 0.00 0.00 0.00 62 1008.7
20260901014516 66 286 0.0 0.0 0.00 0.00 0.00 62 1008.7
20260901013516 66 293 0.0 2.0 0.00 0.00 0.00 62 1008.7
20260901012516 66 293 0.0 3.0 0.00 0.00 0.00 61 1009.0
20260901011515 66 293 0.0 1.0 0.00 0.00 0.00 62 1009.0
20260901010516 67 293 0.0 1.0 0.00 0.00 0.00 60 1009.0
20260901005515 67 293 0.0 3.0 0.00 0.00 0.00 61 1009.1
20260901004516 67 293 0.0 3.0 0.00 0.00 0.00 58 1009.1
20260901003515 68 293 1.0 5.0 0.00 0.00 0.00 60 1009.1
20260901002516 68 293 1.0 5.0 0.00 0.00 0.00 61 1009.4
20260901001516 68 293 1.0 5.0 0.00 0.00 0.00 61 1009.4
20260901000515 68 293 1.0 5.0 0.00 0.00 0.00 61 1009.4
20260831235515 69 293 0.0 3.0 0.00 0.00 0.00 59 1009.6
20260831234516 69 293 1.0 3.0 0.00 0.00 0.00 57 1009.6
20260831233555 69 293 0.0 1.0 0.00 0.00 0.00 59 1009.7
20260831232516 69 293 0.0 1.0 0.00 0.00 0.00 58 1009.8
20260831231516 69 293 0.0 3.0 0.00 0.00 0.00 54 1009.8
20260831230515 69 293 2.0 6.0 0.00 0.00 0.00 55 1010.0
20260831225555 70 293 1.0 3.0 0.00 0.00 0.00 56 1010.2
20260831224515 70 293 1.0 7.0 0.00 0.00 0.00 54 1010.2
20260831223515 71 293 1.0 5.0 0.00 0.00 0.00 53 1010.2
20260831221535 71 293 1.0 5.0 0.00 0.00 0.00 55 1010.5
20260831220515 71 315 2.0 6.0 0.00 0.00 0.00 54 1010.7
20260831215516 71 315 1.0 6.0 0.00 0.00 0.00 54 1010.9
20260831214515 72 315 1.0 4.0 0.00 0.00 0.00 52 1010.9
20260831213517 71 315 1.0 5.0 0.00 0.00 0.00 56 1011.2
20260831212517 70 315 2.0 7.0 0.00 0.00 0.00 55 1011.3
20260831211517 71 315 2.0 6.0 0.00 0.00 0.00 54 1011.3
20260831210517 72 315 2.0 7.0 0.00 0.00 0.00 52 1011.3
20260831205517 72 315 1.0 5.0 0.00 0.00 0.00 53 1011.5
20260831204517 70 315 1.0 7.0 0.00 0.00 0.00 55 1011.5
20260831203537 70 315 1.0 5.0 0.00 0.00 0.00 58 1011.7
20260831202517 69 315 0.0 1.0 0.00 0.00 0.00 57 1011.8
20260831201557 69 315 0.0 3.0 0.00 0.00 0.00 60 1011.8
20260831200517 68 315 1.0 6.0 0.00 0.00 0.00 59 1012.1
20260831195517 68 315 1.0 6.0 0.00 0.00 0.00 60 1012.1
20260831194537 67 315 1.0 5.0 0.00 0.00 0.00 59 1012.1
20260831193517 67 315 0.0 3.0 0.00 0.00 0.00 62 1012.3
20260831192517 67 315 0.0 1.0 0.00 0.00 0.00 61 1012.6
20260831191517 67 315 1.0 5.0 0.00 0.00 0.00 63 1012.6
20260831190517 66 315 0.0 5.0 0.00 0.00 0.00 63 1012.8
20260831185537 66 315 2.0 7.0 0.00 0.00 0.00 65 1012.8
20260831184537 66 293 1.0 5.0 0.00 0.00 0.00 66 1012.8
20260831183517 65 293 1.0 4.0 0.00 0.00 0.00 68 1012.9
20260831182517 64 293 1.0 5.0 0.00 0.00 0.00 66 1013.2
20260831181517 64 293 1.0 6.0 0.00 0.00 0.00 67 1013.2
20260831180536 64 293 1.0 5.0 0.00 0.00 0.00 70 1013.3
20260831175516 63 293 1.0 4.0 0.00 0.00 0.00 73 1013.4
20260831174516 62 293 1.0 4.0 0.00 0.00 0.00 74 1013.4
20260831173516 62 293 2.0 6.0 0.00 0.00 0.00 77 1013.4
20260831172516 61 293 1.0 3.0 0.00 0.00 0.00 79 1013.7
20260831171516 61 293 1.0 5.0 0.00 0.00 0.00 83 1013.7
20260831170516 60 293 0.0 3.0 0.00 0.00 0.00 85 1013.8
20260831165516 59 293 0.0 1.0 0.00 0.00 0.00 92 1013.8
20260831164516 58 293 0.0 3.0 0.00 0.00 0.00 94 1013.8
20260831163516 57 293 0.0 1.0 0.00 0.00 0.00 97 1013.8
20260831162517 56 293 0.0 1.0 0.00 0.00 0.00 99 1013.9
20260831161517 56 303 0.0 0.0 0.00 0.00 0.00 99 1013.9
20260831160516 55 293 0.0 2.0 0.00 0.00 0.00 99 1013.9
20260831155516 55 293 0.0 3.0 0.00 0.00 0.00 100 1014.1
20260831154556 55 303 0.0 0.0 0.00 0.00 0.00 100 1014.1
20260831153536 54 303 0.0 0.0 0.00 0.00 0.00 100 1014.0
20260831152517 53 303 0.0 0.0 0.00 0.00 0.00 100 1014.2
20260831151517 52 303 0.0 0.0 0.00 0.00 0.00 99 1014.2
20260831150516 51 303 0.0 0.0 0.00 0.00 0.00 99 1014.1
20260831145516 51 303 0.0 0.0 0.00 0.00 0.00 99 1014.0
20260831144516 50 303 0.0 0.0 0.00 0.00 0.00 99 1014.0
20260831143516 50 303 0.0 0.0 0.00 0.00 0.00 98 1014.2
20260831142536 50 303 0.0 0.0 0.00 0.00 0.00 98 1014.3
20260831141516 50 303 0.0 0.0 0.00 0.00 0.00 98 1014.3
20260831140516 49 303 0.0 0.0 0.00 0.00 0.00 98 1014.1
20260831135516 49 303 0.0 0.0 0.00 0.00 0.00 98 1014.0
20260831134617 49 303 0.0 0.0 0.00 0.00 0.00 98 1014.0
20260831133517 49 303 0.0 0.0 0.00 0.00 0.00 97 1014.1
20260831132516 50 303 0.0 0.0 0.00 0.00 0.00 97 1014.3
20260831131516 50 303 0.0 0.0 0.00 0.00 0.00 97 1014.3
20260831130516 50 303 0.0 0.0 0.00 0.00 0.00 97 1014.4
20260831125516 50 303 0.0 0.0 0.00 0.00 0.00 97 1014.4
20260831124516 50 303 0.0 0.0 0.00 0.00 0.00 97 1014.4
20260831123556 50 303 0.0 0.0 0.00 0.00 0.00 97 1014.4
20260831122536 50 303 0.0 0.0 0.00 0.00 0.00 97 1014.4
20260831121516 50 303 0.0 0.0 0.00 0.00 0.00 97 1014.4
20260831120516 50 303 0.0 0.0 0.00 0.00 0.00 97 1014.7
20260831115516 50 303 0.0 0.0 0.00 0.00 0.00 96 1014.9
20260831114516 50 303 0.0 0.0 0.00 0.00 0.00 96 1014.9
20260831113516 50 303 0.0 0.0 0.00 0.00 0.00 96 1014.9
20260831112516 51 303 0.0 0.0 0.00 0.00 0.00 96 1015.0
20260831111516 51 303 0.0 0.0 0.00 0.00 0.00 96 1015.0
20260831110556 51 303 0.0 0.0 0.00 0.00 0.00 96 1015.2
20260831105556 51 303 0.0 0.0 0.00 0.00 0.00 96 1015.1
20260831104515 51 303 0.0 0.0 0.00 0.00 0.00 96 1015.1
20260831103516 51 303 0.0 0.0 0.00 0.00 0.00 96 1015.3
20260831102516 51 303 0.0 0.0 0.00 0.00 0.00 96 1015.4
20260831101515 51 303 0.0 0.0 0.00 0.00 0.00 96 1015.4
20260831100515 51 303 0.0 0.0 0.00 0.00 0.00 95 1015.5
20260831095536 52 303 0.0 0.0 0.00 0.00 0.00 95 1015.6
20260831094515 52 303 0.0 0.0 0.00 0.00 0.00 95 1015.6
20260831093516 52 303 0.0 0.0 0.00 0.00 0.00 95 1015.8
20260831092536 52 303 0.0 0.0 0.00 0.00 0.00 95 1016.0
20260831091555 52 303 0.0 0.0 0.00 0.00 0.00 95 1016.0
20260831090515 52 303 0.0 0.0 0.00 0.00 0.00 95 1016.0
20260831085515 52 303 0.0 0.0 0.00 0.00 0.00 95 1016.0
20260831084516 52 303 0.0 0.0 0.00 0.00 0.00 94 1016.0
20260831083535 53 303 0.0 0.0 0.00 0.00 0.00 94 1016.1
20260831082515 53 303 0.0 0.0 0.00 0.00 0.00 94 1016.5
20260831081536 53 303 0.0 0.0 0.00 0.00 0.00 94 1016.5
20260831080516 53 303 0.0 0.0 0.00 0.00 0.00 93 1016.4
20260831075515 53 303 0.0 0.0 0.00 0.00 0.00 93 1016.6
20260831074515 53 303 0.0 0.0 0.00 0.00 0.00 93 1016.6
20260831073515 53 303 0.0 0.0 0.00 0.00 0.00 93 1016.6
20260831072515 53 303 0.0 0.0 0.00 0.00 0.00 92 1016.8
20260831071535 53 303 0.0 0.0 0.00 0.00 0.00 92 1016.8
20260831070515 54 303 0.0 0.0 0.00 0.00 0.00 92 1017.0
20260831065517 54 303 0.0 0.0 0.00 0.00 0.00 92 1017.1
20260831064537 54 303 0.0 0.0 0.00 0.00 0.00 92 1017.1
20260831063517 54 303 0.0 0.0 0.00 0.00 0.00 91 1017.1
20260831062517 54 303 0.0 0.0 0.00 0.00 0.00 90 1017.2
20260831061517 55 303 0.0 0.0 0.00 0.00 0.00 90 1017.2
20260831060517 55 303 0.0 0.0 0.00 0.00 0.00 89 1017.2
20260831055517 55 303 0.0 0.0 0.00 0.00 0.00 89 1017.5
20260831054517 56 303 0.0 0.0 0.00 0.00 0.00 89 1017.5
20260831053517 56 303 0.0 0.0 0.00 0.00 0.00 88 1017.5
20260831052516 57 303 0.0 0.0 0.00 0.00 0.00 87 1017.6
20260831051517 57 303 0.0 0.0 0.00 0.00 0.00 86 1017.5
20260831050517 58 303 0.0 0.0 0.00 0.00 0.00 85 1017.6
20260831045517 58 303 0.0 0.0 0.00 0.00 0.00 84 1017.7
20260831044536 59 303 0.0 0.0 0.00 0.00 0.00 84 1017.7
20260831043517 59 303 0.0 0.0 0.00 0.00 0.00 83 1017.8
20260831042516 60 303 0.0 0.0 0.00 0.00 0.00 81 1017.9